DateTimeUTC,F1_A11,F1_S11,BsB_S11,BsG_S11,BsR_S11,BbsB_S11,BbsG_S11,BbsR_S11,BaB_A11,BaG_A11,BaR_A11,Tu_S11,T_S11,Uu_S11,U_S11,P_S11,T1_A11
2021-10-29T03:00:00Z,00000200,21000000,,,,,,,0000.14,0000.24,0000.33,18.4,25.5,,00.0,0646.2,31.1
2021-10-29T03:01:00Z,00000200,21000000,,,,,,,0000.15,0000.27,0000.03,18.4,25.6,,00.0,0646.2,31.1
2021-10-29T03:02:00Z,00000200,21000000,,,,,,,0000.02,0000.31,0000.33,18.5,25.6,,00.0,0646.2,31.1
2021-10-29T03:03:00Z,00000200,61000000,,,,,,,0000.70,0000.62,0000.25,18.5,25.6,,00.0,0646.2,31.1
2021-10-29T03:04:00Z,00000200,41000000,-000.12,0000.14,-000.05,-000.46,-000.04,-000.09,-000.53,-000.38,0000.10,18.8,25.5,,00.0,0647.0,31.1
2021-10-29T03:05:00Z,00000200,01000000,0000.07,0000.44,-000.20,-000.65,0000.11,0000.16,0000.04,-000.18,-000.33,18.9,25.5,,00.0,0647.1,31.1
2021-10-29T03:06:00Z,00000200,01000000,0000.70,0000.12,0000.11,-000.33,0000.17,-000.12,-000.36,-000.48,-000.42,18.9,25.5,,00.0,0647.1,31.1
2021-10-29T03:07:00Z,00000200,01000000,0000.26,0000.28,0000.24,-000.00,-000.12,-000.10,-000.54,-000.29,-000.29,18.8,25.5,,00.0,0647.1,31.1
2021-10-29T03:08:00Z,00000200,01000000,0000.49,0000.40,0000.29,-000.10,0000.09,-000.00,0000.11,-000.03,-000.10,18.8,25.4,,00.0,0647.1,31.1
2021-10-29T03:09:00Z,00000200,01000000,0000.97,0000.41,0000.20,-000.09,0000.41,0000.21,0000.34,0000.59,0000.22,18.7,25.4,,00.0,0647.0,31.1
2021-10-29T03:10:00Z,00000200,01000000,-000.08,0000.18,-000.00,0000.51,0000.29,0000.12,0000.22,-000.32,0000.07,18.6,25.3,,00.0,0647.0,31.0
2021-10-29T03:11:00Z,00000200,01000000,0000.03,0000.41,0000.27,0000.07,0000.43,0000.04,-000.40,0000.08,-000.05,18.5,25.3,,00.0,0647.0,31.0
2021-10-29T03:12:00Z,00000200,01000000,0000.49,0000.36,0000.36,-000.16,0000.39,0000.18,0000.41,-000.26,0000.06,18.5,25.2,,00.0,0647.0,31.1
2021-10-29T03:13:00Z,00000200,01000000,0000.40,0000.45,0000.08,-000.18,-000.06,0000.29,-000.14,-000.01,-000.01,18.5,25.2,,00.0,0647.0,31.1
2021-10-29T03:14:00Z,00000200,01000000,-000.03,0000.33,-000.01,-000.33,0000.27,-000.11,-000.30,-000.18,0000.01,18.6,25.3,,00.0,0647.1,31.1
2021-10-29T03:15:00Z,00000200,01000000,0000.18,0000.49,0000.42,0000.25,0000.26,0000.19,-000.52,-000.61,-000.56,18.6,25.3,,00.0,0647.1,31.1
2021-10-29T03:16:00Z,00000200,01000000,0000.62,0000.51,-000.06,-000.20,0000.40,-000.19,-000.03,-000.10,-000.08,18.7,25.3,,00.0,0647.2,31.1
2021-10-29T03:17:00Z,00000200,01000000,-000.40,0000.25,0000.18,0000.01,0000.30,-000.21,-000.29,0000.08,-000.24,18.7,25.3,,00.0,0647.2,31.1
2021-10-29T03:18:00Z,00000200,01000000,0000.84,0000.29,0000.16,-000.17,0000.15,0000.11,-000.03,-000.07,0000.14,18.7,25.3,,00.0,0647.2,31.1
2021-10-29T03:19:00Z,00000200,01000000,0000.86,0000.40,0000.12,-001.08,0000.23,-000.04,-000.00,0000.33,-000.20,18.8,25.4,,00.0,0647.2,31.1
2021-10-29T03:20:00Z,00000200,01000000,0000.52,0000.05,0000.06,-000.67,0000.13,-000.10,0000.20,-000.18,0000.40,18.8,25.4,,00.0,0647.2,31.1
2021-10-29T03:21:00Z,00000200,01000000,0000.25,0000.52,-000.25,0000.15,0000.15,0000.33,0000.04,-000.05,-000.16,18.8,25.4,,00.0,0647.2,31.1
2021-10-29T03:22:00Z,00000200,01000000,0000.10,0000.48,0000.25,-000.18,0000.34,0000.25,0000.05,0000.17,-000.04,18.7,25.4,,00.0,0647.2,31.1
2021-10-29T03:23:00Z,00000200,01000000,0000.42,0000.47,0000.08,-000.43,0000.42,0000.07,0000.03,-000.14,0000.04,18.6,25.3,,00.0,0647.2,31.1
2021-10-29T03:24:00Z,00000200,01000000,0000.29,0000.12,0000.13,0000.66,0000.55,0000.00,0000.09,0000.34,0000.24,18.5,25.3,,00.0,0647.2,31.1
2021-10-29T03:25:00Z,00000200,01000000,0001.13,0000.35,0000.29,-000.48,0000.28,0000.22,0000.64,0000.24,0000.25,18.4,25.2,,00.0,0647.1,31.0
2021-10-29T03:26:00Z,00000200,01000000,0000.30,0000.39,0000.12,-000.07,0000.23,-000.13,0000.50,0000.18,0000.11,18.4,25.1,,00.0,0647.1,31.0
2021-10-29T03:27:00Z,00000200,01000000,0000.36,0000.49,0000.04,0000.19,0000.40,0000.03,0000.45,0001.08,0000.68,18.4,25.1,,00.0,0647.1,31.0
2021-10-29T03:28:00Z,00000200,01000000,0000.93,0000.32,-000.02,-000.23,0000.14,0000.01,0000.60,0000.20,0000.39,18.4,25.1,,00.0,0647.1,31.1
2021-10-29T03:29:00Z,00000200,01000000,0000.31,0000.31,-000.29,-000.89,0000.19,-000.14,0000.19,0000.33,0000.41,18.4,25.2,,00.0,0647.1,31.1
2021-10-29T03:30:00Z,00000200,01000000,0000.49,0000.50,-000.02,-000.22,0000.40,-000.01,0000.42,0000.18,-000.20,18.5,25.2,,00.0,0647.1,31.1
2021-10-29T03:31:00Z,00000200,01000000,-000.00,0000.50,0000.15,0000.29,0000.04,0000.07,-000.63,-000.40,-000.00,18.5,25.2,,00.0,0647.2,31.1
2021-10-29T03:32:00Z,00000200,01000000,0000.84,0000.18,0000.31,-000.39,0000.17,0000.07,-000.33,-000.11,-000.66,18.6,25.2,,00.0,0647.2,31.1
2021-10-29T03:33:00Z,00000200,01000000,0000.16,0000.03,0000.32,-000.54,-000.00,0000.23,-000.00,-000.46,0000.28,18.6,25.2,,00.0,0647.3,31.1
2021-10-29T03:34:00Z,00000200,01000000,-000.24,0000.45,0000.10,-000.25,0000.51,0000.36,0000.01,0000.13,-000.15,18.7,25.2,,00.0,0647.2,31.1
2021-10-29T03:35:00Z,00000200,01000000,0000.25,0000.14,0000.18,0000.14,0000.14,0000.28,0000.18,0000.27,-000.19,18.7,25.2,,00.0,0647.2,31.1
2021-10-29T03:36:00Z,00000200,01000000,-000.00,0000.24,0000.09,-000.06,0000.49,0000.19,-000.02,-000.26,0000.59,18.7,25.3,,00.0,0647.2,31.1
2021-10-29T03:37:00Z,00000200,01000000,0001.27,0000.27,0000.32,-000.47,0000.18,0000.30,0000.05,0000.50,-000.41,18.8,25.3,,00.0,0647.3,31.1
2021-10-29T03:38:00Z,00000200,01000000,0000.47,0000.24,0000.05,0000.38,-000.02,0000.03,-000.14,-000.32,0000.13,18.8,25.3,,00.0,0647.3,31.1
2021-10-29T03:39:00Z,00000200,01000000,0000.37,0000.27,0000.19,-001.02,0000.26,0000.26,-000.44,-000.33,-000.51,18.8,25.3,,00.0,0647.3,31.1
2021-10-29T03:40:00Z,00000200,01000000,0000.14,0000.88,0000.13,-000.54,0000.09,0000.04,-000.23,-000.44,-000.61,18.7,25.3,,00.0,0647.4,31.1
2021-10-29T03:41:00Z,00000200,01000000,-000.32,0000.48,-000.08,0000.05,0000.35,0000.14,-000.38,-000.21,0000.08,18.6,25.2,,00.0,0647.4,31.1
2021-10-29T03:42:00Z,00000200,01000000,0000.29,0000.30,0000.20,-000.37,0000.32,-000.09,-000.21,-000.05,-000.40,18.6,25.2,,00.0,0647.4,31.1
2021-10-29T03:43:00Z,00000200,01000000,0000.64,0000.34,0000.14,-000.57,0000.51,0000.07,0000.05,-000.18,0000.31,18.6,25.2,,00.0,0647.4,31.1
2021-10-29T03:44:00Z,00000200,01000000,0000.44,0000.26,0000.49,-000.18,0000.11,0000.19,-000.05,0000.07,-000.04,18.6,25.2,,00.0,0647.3,31.1
2021-10-29T03:45:00Z,00000200,01000000,0000.30,0000.36,0000.03,-000.42,-000.01,-000.19,-000.05,-000.24,-000.21,18.7,25.2,,00.0,0647.3,31.1
2021-10-29T03:46:00Z,00000200,01000000,0000.30,0000.40,0000.15,-000.15,0000.08,-000.32,0000.02,0000.27,0000.14,18.7,25.3,,00.0,0647.3,31.1
2021-10-29T03:47:00Z,00000200,01000000,-000.34,0000.03,0000.02,0000.21,0000.15,-000.16,0000.44,-000.03,0000.09,18.8,25.3,,00.0,0647.3,31.1
2021-10-29T03:48:00Z,00000200,01000000,0000.38,0000.37,0000.17,0000.26,0000.18,0000.05,-000.08,0000.33,-000.20,18.7,25.3,,00.0,0647.3,31.1
2021-10-29T03:49:00Z,00000200,01000000,0000.92,0000.41,0000.06,-000.45,0000.17,0000.18,0000.28,0000.12,0000.37,18.6,25.2,,00.0,0647.2,31.1
2021-10-29T03:50:00Z,00000200,01000000,-000.00,0000.41,0000.31,0001.04,0000.37,0000.09,0000.39,0000.17,0000.37,18.5,25.2,,00.0,0647.2,31.1
2021-10-29T03:51:00Z,00000200,01000000,0000.62,0000.56,0000.19,-000.18,-000.04,0000.41,0000.16,0000.35,0000.07,18.4,25.2,,00.0,0647.1,31.0
2021-10-29T03:52:00Z,00000200,01000000,0000.01,0000.32,-000.18,-000.22,0000.25,0000.22,-000.14,0000.26,-000.04,18.3,25.1,,00.0,0647.1,31.0
2021-10-29T03:53:00Z,00000200,01000000,0000.00,0000.27,-000.13,-000.40,0000.24,0000.03,0000.41,-000.40,0000.47,18.2,25.0,,00.0,0647.1,31.0
2021-10-29T03:54:00Z,00000200,01000000,0001.24,0000.60,-000.18,0000.30,0000.48,-000.42,0000.08,0000.33,-000.22,18.1,25.0,,00.0,0647.0,31.0
2021-10-29T03:55:00Z,00000200,01000000,0000.51,0000.34,0000.21,-000.19,-000.15,0000.12,0000.69,0000.30,0000.38,18.0,24.9,,00.0,0647.0,31.0
2021-10-29T03:56:00Z,00000200,01000000,0000.38,0000.12,-000.14,-000.37,0000.15,-000.08,0000.22,0000.09,0000.23,18.0,24.9,,00.0,0646.9,31.0
2021-10-29T03:57:00Z,00000200,41000000,,,,,,,0001.76,0002.15,0001.27,18.1,24.9,,00.0,0646.9,31.0
2021-10-29T03:58:00Z,00000200,61000000,,,,,,,-000.68,-000.78,-000.12,17.7,25.0,,00.0,0646.0,31.0
2021-10-29T03:59:00Z,00000200,21000000,,,,,,,-000.19,-000.05,0000.11,17.7,25.1,,00.0,0645.9,31.0
